Location: *
(46.3500°N, 10.9000°E)
Time: 23:58:53
(UTC+00:00)

Cosmos 2251 Rocket - Pass Details

Date: 09 April 2020
Orbit: 765 x 791 km, 74.0° (Epoch: 04 June)

Event Time Altitude Azimuth Distance (km) Brightness Sun altitude
Rises 18:21:05 0° 213° (SSW) 3,271 7.0 -4.9°
Reaches altitude 10° 18:23:31 10° 218° (SW) 2,348 6.3 -5.3°
Maximum altitude 18:28:45 56° 296° (WNW) 943 4.5 -6.2°
Drops below altitude 10° 18:34:03 10° 14° (NNE) 2,367 6.1 -7.1°
Sets 18:36:31 0° 19° (NNE) 3,299 6.8 -7.5°
